www.pogodaiklimat.ru

Погода и климат >> Архив погоды >> Россия >> Якутия >> Якутск


АРХИВ ПОГОДЫ в Якутске

Время (UTC), дата Ветер
(напр.,м/с)
 
Видим.   Явления Облачность Т
(С)
Тd
(С)
f
(%)
Тe
(С)
Тes
(С)
Комфортность P
(гПа)
Po
(гПа)
Тmin
(С)
Tmax
(С)
R
(мм)
R24
(мм)
S
(см)
12 8.09 СЗ 1 50 км 10/6 1000 м
[Sc Ac trans Ci fib]
+7.0 +3.1 76 +6 +6 по сезону 1010.6 998.3 +12.3 0.0
15 8.09 СЗ 2 50 км 10/6 1000 м
[Sc Ac trans]
+6.0 +3.1 82 +4 +4 по сезону 1010.3 997.9
18 8.09 ЮЗ 1 50 км 8/0
[Ci fib]
+2.7 +0.9 88 +1 +1 по сезону 1010.2 997.7
21 8.09 СЗ 1 50 км 10/0
[Ac trans Ci fib]
+2.7 +0.9 88 +1 +1 прохладно 1010.0 997.5
00 9.09 СЗ 1 50 км 5/0
[Ac trans Ci fib]
+7.9 +4.4 79 +7 +10 по сезону 1009.2 997.0 +1.5
03 9.09 С 2 50 км 8/5 1000 м
[Cu hum Ac trans Ci fib]
+14.9 +7.6 62 +15 +17 тепло 1008.0 996.1
06 9.09 СЗ 3 50 км 9/8 1000 м
[Cu hum Ac trans Ci fib]
+16.0 +6.0 51 +16 +16 тепло 1007.4 995.5
09 9.09 СЗ 2 50 км 9/8 1000 м
[Cu Sc Ac trans Ci fib]
+16.3 +6.1 51 +16 +16 тепло 1007.7 995.9
12 9.09 ЮЗ 1 50 км 4/0
[Ci fib]
+8.8 +5.8 81 +8 +8 по сезону 1009.1 996.9 +17.6
15 9.09 ЮЗ 1 50 км 5/3 1000 м
[Sc Ci fib]
+9.1 +6.2 82 +9 +9 тепло 1009.1 997.0
18 9.09 штиль 0 50 км 3/0
[Ci fib]
+7.2 +5.3 88 +6 +6 тепло 1009.5 997.2
21 9.09 З 1 50 км ясно +8.1 +6.0 87 +7 +7 по сезону 1010.3 998.1
00 10.09 З 2 50 км ясно +16.0 +9.2 64 +16 +19 тепло 1010.4 998.5 +6.2
03 10.09 З 5
{10}
50 км в посл. час ливневой дождь 10/4 1000 м
[Cb cap Ac trans Ci fib]
+18.9 +7.0 46 +19 +20 тепло 1010.1 998.3
06 10.09 СЗ 5
{11}
50 км {ливн. осадки} 10/4 600 м
[Cu Sc Ac trans Ci fib]
+20.4 +3.1 32 +21 +21 комфорт 1009.7 998.0
09 10.09 СЗ 3
{11}
50 км 10/6 600 м
[Cb cap Ac trans Ci fib]
+19.4 +4.2 37 +20 +20 тепло 1010.3 998.5
12 10.09 штиль 0 20 км ясно +9.9 +6.3 78 +9 +9 тепло 1012.2 1000.0 +21.4 0.0
15 10.09 штиль 0 20 км 4/0
[Ci fib]
+7.0 +4.4 84 +6 +6 по сезону 1012.3 1000.0
18 10.09 штиль 0 20 км 10/0
[Ac trans Ci fib]
+8.6 +6.2 85 +8 +8 тепло 1012.1 999.9
21 10.09 штиль 0 20 км 10/4 600 м
[Cb cap Ac trans Ci fib]
+7.8 +5.9 88 +7 +7 по сезону 1011.9 999.6
00 11.09 Ю 2 50 км 8/0
[Ac trans Ci fib]
+12.7 +9.4 80 +12 +14 тепло 1010.9 998.9 +6.2
03 11.09 Ю 2 50 км 8/0
[Ac trans Ci fib]
+18.9 +6.7 45 +20 +24 тепло 1009.2 997.4
06 11.09 Ю 3 50 км 10/8 600 м
[Sc diur, vesp Ac trans Ci fib]
+20.7 +3.8 33 +22 +22 комфорт 1006.9 995.2
09 11.09 ЮВ 2
{11}
50 км 10/6 600 м
[Sc diur, vesp Ac trans Ci fib]
+18.9 +4.6 39 +20 +20 тепло 1006.1 994.4
12 11.09 С 1 20 км 6/3 1000 м
[Sc Ac trans Ci fib]
+8.7 +5.8 82 +8 +8 по сезону 1006.7 994.5 +21.4
15 11.09 СЗ 1 20 км 10/0
[Ac trans Ci fib]
+5.2 +3.5 89 +4 +4 по сезону 1006.8 994.5
18 11.09 штиль 0 20 км 8/0
[Ac trans Ci fib]
+3.2 +2.2 93 +2 +2 по сезону 1006.8 994.3
21 11.09 штиль 0 50 км 10/0
[Ac trans Ci fib]
+1.3 +0.6 95 0 0 прохладно 1007.4 994.8
00 12.09 ЮВ 1 50 км 8/0
[Ci fib]
+11.3 +7.3 76 +11 +14 тепло 1006.7 994.6 +0.7
03 12.09 Ю 2 50 км 6/0
[Ci fib]
+17.3 +8.2 55 +18 +23 тепло 1005.6 993.8
06 12.09 Ю 3 50 км 10/0
[Ac trans Cs]
+19.2 +4.7 38 +20 +22 тепло 1003.7 991.9
09 12.09 В 1 50 км 10/3 1000 м
[Sc Ac trans]
+17.2 +7.2 52 +18 +18 тепло 1000.9 989.1
12 12.09 В 3 50 км 10/4 600 м
[Sc Ac trans]
+15.9 +8.9 63 +15 +15 тепло 999.1 987.3 +19.4
15 12.09 В 3 20 км слаб. ливневой дождь 10/6 600 м
[Cb cap Ac und]
+12.3 +9.8 85 +11 +11 тепло 995.9 984.0
18 12.09 ЮВ 3 20 км слаб. дождь 10/6 600 м
[Cb cap Ac und]
+11.1 +9.8 92 +9 +9 тепло 991.6 979.7
21 12.09 Ю 3 50 км {дождь} 10/8 600 м
[Cb cap Ac und]
+11.1 +10.3 95 +9 +9 тепло 989.6 977.7
00 13.09 ЮЗ 4 50 км {дождь} 10/8 600 м
[Cb cap Ac trans]
+11.1 +9.3 89 +9 +9 тепло 990.5 978.6 +11.0 6
03 13.09 ЮЗ 5 50 км в посл. час дождь 10/10 600 м
[Cb cap]
+11.6 +8.8 83 +9 +9 по сезону 991.4 979.5 +11.0
06 13.09 З 5 20 км слаб. дождь 10/10 600 м
[Cb cap]
+10.3 +8.2 87 +7 +7 прохладно 993.7 981.8
09 13.09 З 5-11
{14}
50 км {дождь} 10/10 600 м
[Cb cap]
+7.8 +4.8 81 +4 +4 прохладно 997.4 985.3
12 13.09 З 6
{14}
50 км {дождь} 10/8 600 м
[Cb cap Ac trans]
+7.6 +2.6 71 +4 +4 по сезону 1000.2 988.1 +12.4 0.0
15 13.09 З 5 50 км 10/6 1000 м
[Sc Ac trans Ci fib]
+5.6 0.0 67 +1 +1 по сезону 1001.7 989.4
18 13.09 З 3 50 км 10/3 1000 м
[Sc Ac trans Ci fib]
+1.6 -4.1 66 -2 -2 прохладно 1003.3 990.9
21 13.09 З 3 50 км 8/0
[Ac trans Ci fib]
+0.1 -5.5 66 -4 -4 холодно 1004.8 992.2
00 14.09 З 3 50 км 5/0
[Ci fib]
+4.2 -6.8 45 +1 +3 прохладно 1005.8 993.4 -0.5
03 14.09 З 5 50 км 3/0
[Ci fib]
+7.7 -8.5 31 +5 +7 по сезону 1005.5 993.3
06 14.09 З 3 50 км 3/0
[Ci fib]
+9.4 -9.2 26 +8 +10 по сезону 1004.8 992.6
09 14.09 Ю 2 50 км 1/0
[Ci fib]
+9.1 -7.8 29 +8 +8 по сезону 1004.8 992.6
12 14.09 СЗ 1 50 км 3/0
[Ci fib]
-0.6 -3.5 81 -3 -3 холодно 1006.0 993.4 +10.0
15 14.09 штиль 0 50 км ясно -3.9 -5.7 87 -5 -5 холодно 1006.3 993.5
18 14.09 З 1 50 км 3/0
[Ci fib]
-5.1 -6.5 90 -8 -8 очень
холодно
1006.3 993.5
21 14.09 штиль 0 50 км 3/0
[Ci fib]
-6.2 -7.5 90 -7 -7 очень
холодно
1006.0 993.2
00 15.09 штиль 0 50 км 3/0
[Ci fib]
+3.3 -1.5 71 +3 +5 по сезону 1005.6 993.2 -6.5
03 15.09 В 4 50 км 8/3 1000 м
[Sc Ac trans Ci fib]
+11.4 -8.7 24 +10 +11 тепло 1003.7 991.6
06 15.09 В 4 50 км 6/3 1000 м
[Sc Ci fib]
+13.4 -9.4 20 +12 +14 тепло 1002.1 990.1
09 15.09 В 3 50 км 3/3 1000 м
[Sc Ci fib]
+11.8 -8.8 23 +11 +11 тепло 1002.6 990.5

 

Местоположение метеостанции Якутск (Якутия, Россия): широта 62.00 долгота 129.60 высота над уровнем моря 101 м.

В архиве по умолчанию представлена погода в Якутске за последнюю неделю. Архивные данные за месяц целиком и за предыдущие месяцы, начиная с января 2011 года, Вы можете получить, выбрав интересующий диапазон дат из раскрывающегося списка и нажав кнопку "Ввод!".


*Определитесь, кто Вы:
робот инопланетянин человек

Внимание! Время в таблицах - всемирное. Для получения местного времени необходимо прибавить поправку, которая равна 9 ч.

Смотрите также архив погоды в соседних городах и на ближайших метеорологических станциях:

Погода в Покровске (Якутия, Россия) (64 км)
Погода в Намцах (Якутия, Россия) (80 км)
Погода в Бердигестяхе (Якутия, Россия) (138 км)
Погода в Чурапче (Якутия, Россия) (157 км)
Погода в Батамае (Якутия, Россия) (169 км)
Погода в Тегюльте (Якутия, Россия) (172 км)
Погода в Амге (Якутия, Россия) (173 км)
Погода в Верхоянском Перевозе (Якутия, Россия) (191 км)
Погода в Ытык-Кюёле (Якутия, Россия) (207 км)
Погода в Сеген-Кюеле (Якутия, Россия) (225 км)

Пояснения к столбцам:

Ветер - указаны скорость ветра в м/с - средняя за 10 мин, порывы в срок и между сроками (в фигурных скобках) и направление, откуда дует ветер: С - северный, СВ - северо-восточный, В - восточный, ЮВ - юго-восточный, Ю - южный, ЮЗ - юго-западный, З - западный, СЗ - северо-западный.
Видимость - горизонтальная дальность видимости в метрах или километрах. При видимости от 1 до 10 км при отсутствии осадков обычно наблюдается дымка, при ухудшении видимости до 1 км и менее - туман. В сухую погоду видимость может ухудшаться дымом, пылью или мглою.
Явления - указаны атмосферные явления, наблюдавшиеся в срок или в последний час перед сроком; фигурными скобками обозначены явления, наблюдавшиеся между сроками (за 1-3 часа до срока); квадратными скобками обозначены град или гололедные отложения с указанием их диаметра в мм.
Облачность - указаны через наклонную черту общая и нижняя облачность в баллах и высота нижней границы облаков в метрах; квадратными скобками обозначены формы облаков: Ci - перистые, Cs - перисто-слоистые, Cc - перисто-кучевые, Ac - высококучевые, As - высокослоистые, Sc - слоисто-кучевые, Ns - слоисто-дождевые, Cu - кучевые, Cb - кучево-дождевые. Подробнее классификацию облаков см. в Атласе облаков (PDF).
T - Температура воздуха - температура, измеренная на высоте 2 м над землей.
Td - Температура точки росы - температура, при понижении до которой содержащийся в воздухе водяной пар достигнет насыщения.
f - Относительная влажность воздуха - влажноcть воздуха, измеренная на высоте 2 м над землей.
Te - Эффективная температура - температура, которую ощущает одетый по сезону человек в тени. Характеристика душности погоды. При расчете учитывается влияние влажности воздуха и скорости ветра на теплоощущения человека.
Tes - Эффективная температура на солнце - температура, которую ощущает человек, с поправкой на солнечный нагрев. Характеристика знойности погоды. Зависит от высоты солнца над горизонтом, облачности и скорости ветра. Ночью, в пасмурную погоду, а также при ветре 12 м/с и более поправка равна нулю.
P - Атмосферное давление - приведенное к уровню моря атмосферное давление.
Po - Атмосферное давление - измеренное на уровне метеостанции атмосферное давление.
Tmin - Минимальная температура - минимум температуры воздуха на высоте 2 м над землей.
Tmax - Максимальная температура - максимум температуры воздуха на высоте 2 м над землей.
R - Количество осадков - Количество выпавших осадков за период времени, мм. При наведении курсора мыши на число - период времени, за который выпало указанное количество осадков.
R24 - Количество осадков - Количество выпавших осадков за 24 часа, мм.
S - Снежный покров - Высота снежного покрова, см. При наведении курсора мыши на число - состояние снежного покрова и степень покрытия местности в баллах.